Regional Weather Roundup
Issued by NWS State College, PA

Home | Current Version | Previous Version | Graphics & Text | Print | Product List | Glossary Off
Versions: 1 2 3 4 5 6 7 8 9 10 11 12 13 14 15 16 17 18 19 20 21 22 23 24 25 26 27 28 29 30 31 32 33 34 35 36 37 38 39 40 41 42 43 44 45 46 47 48 49 50

940
ASUS41 KCTP 201010
RWRCTP

REGIONAL WEATHER ROUNDUP
NATIONAL WEATHER SERVICE STATE COLLEGE PA
500 AM EST SAT JAN 20 2018

Note: "fair" indicates few or no clouds below 12,000 feet with no
significant weather and/or obstructions to visibility.

* = STATION THAT DOES NOT REPORT PRECIPITATION /E.G. RAIN...SNOW...ETC/
    THUNDER OR FOG.

PAZ002>004-007>009-013>016-020>023-029>032-201100-
WESTERN PENNSYLVANIA

CITY           SKY/WX    TMP DP  RH WIND       PRES   REMARKS
ERIE           FAIR      37  23  56 SW20G30   29.84R
MEADVILLE      FAIR      32  22  66 SW15G23   29.87R
FRANKLIN*      FAIR      31  22  69 SW14G22   29.89S
NEW CASTLE     FAIR      35  23  61 SW7       29.95R
BEAVER COUNTY  NOT AVBL
BUTLER*        FAIR      34  21  59 SW14      29.96R
PITTSBURGH INT MOCLDY    37  22  54 SW12      29.96S
PITTSBURGH     FAIR      35  19  52 SW14      29.97S
INDIANA*       CLEAR     36  19  51 W15G21    29.98F
LATROBE        FAIR      36  18  48 S16G23    29.99S
WASHINGTON CO* NOT AVBL
$$

PAZ004>006-010>012-017>019-024>028-033>037-041-042-045-046-049>053-201100-
CENTRAL PENNSYLVANIA

CITY           SKY/WX    TMP DP  RH WIND       PRES   REMARKS
BRADFORD       FAIR      30  20  66 SW14G28   29.82R
DUBOIS         FAIR      31  18  58 SW16      29.89R
CLEARFIELD     FAIR      35  21  56 SW13G28   29.90S
JOHNSTOWN      FAIR      35  23  61 SW17G29   29.91S
ALTOONA        FAIR      39  24  55 SW18      29.92R
STATE COLLEGE  FAIR      38  25  60 W13       29.89R
WILLIAMSPORT   FAIR      26  21  81 SE3       29.87F
SELINSGROVE    FAIR      26  22  84 CALM      29.91S
FT INDIANTOWN  FAIR      30  24  77 SW5       29.91F
CAPITAL CITY   FAIR      23  19  85 CALM      29.93F
HARRISBURG     FAIR      24  20  84 CALM      29.92F
YORK           FAIR      40  24  53 SW6       29.93F
$$

PAZ038>040-043-044-047-048-054-055-060>062-067>071-201100-
EASTERN PENNSYLVANIA

CITY           SKY/WX    TMP DP  RH WIND       PRES   REMARKS
SCRANTON       FAIR      37  22  54 SW14      29.83F
MOUNT POCONO   FAIR      32  21  64 W21G28    29.78F
ALLENTOWN      FAIR      28  18  66 SW8       29.89F
QUAKERTOWN*    FAIR      25  18  74 MISG      29.90F
READING        FAIR      23  20  88 CALM      29.91F
LANCASTER      FAIR      35  23  61 SW7       29.93F
COATESVILLE    FAIR      37  21  52 VRB7G13   29.93F
POTTSTOWN      FAIR      32  20  61 SW6       29.93F
BLUE BELL      FAIR      32  21  64 SW5       29.93F
DOYLESTOWN     FAIR      30  18  60 S3        29.90F
WILLOW GROVE   NOT AVBL
NORTH PHILA    FAIR      34  21  59 SW6       29.95F
PHILADELPHIA   FAIR      32  19  58 SW6       29.96F
$$




USA.gov is the U.S. government's official web portal to all federal, state and local government web resources and services.